"datetime","temp","dp","rain_mm","uv","solar","mb","wind_mph","gust_mph","windchill","rh"
"2021-02-09 00:00:00","-0.6","-2.8",0.0,0.0,0,1004.6,3,9,"-5.1",85
"2021-02-09 00:01:00","-0.6","-2.8",0.0,0.0,0,1004.6,4,9,"-5.1",85
"2021-02-09 00:02:00","-0.6","-2.8",0.0,0.0,0,1004.6,2,3,"",85
"2021-02-09 00:03:00","-0.6","-2.8",0.0,0.0,0,1004.6,1,3,"",85
"2021-02-09 00:04:00","-0.7","-2.9",0.0,0.0,0,1004.6,3,6,"-3.9",85
"2021-02-09 00:05:00","-0.7","-2.9",0.0,0.0,0,1004.6,3,5,"-3.6",85
"2021-02-09 00:06:00","-0.6","-2.8",0.0,0.0,0,1004.6,2,6,"-4.1",85
"2021-02-09 00:07:00","-0.7","-2.9",0.0,0.0,0,1004.6,2,4,"-3.0",85
"2021-02-09 00:08:00","-0.7","-2.9",0.0,0.0,0,1004.7,1,2,"",85
"2021-02-09 00:09:00","-0.7","-2.9",0.0,0.0,0,1004.6,2,4,"-3.0",85
"2021-02-09 00:10:00","-0.7","-2.9",0.0,0.0,0,1004.6,2,4,"-3.0",85
"2021-02-09 00:11:00","-0.7","-2.9",0.0,0.0,0,1004.7,2,6,"-4.1",85
"2021-02-09 00:12:00","-0.7","-2.9",0.0,0.0,0,1004.7,3,4,"-3.0",85
"2021-02-09 00:13:00","-0.7","-2.9",0.0,0.0,0,1004.7,2,4,"-3.0",85
"2021-02-09 00:14:00","-0.7","-2.9",0.0,0.0,0,1004.7,2,4,"-3.0",85
"2021-02-09 00:15:00","-0.7","-2.9",0.0,0.0,0,1004.7,2,4,"-3.0",85
"2021-02-09 00:16:00","-0.7","-2.9",0.0,0.0,0,1004.7,1,2,"",85
"2021-02-09 00:17:00","-0.7","-2.9",0.0,0.0,0,1004.7,1,2,"",85
"2021-02-09 00:18:00","-0.7","-2.9",0.0,0.0,0,1004.7,1,2,"",85
"2021-02-09 00:19:00","-0.7","-2.8",0.0,0.0,0,1004.7,4,6,"-4.1",86
"2021-02-09 00:20:00","-0.7","-2.9",0.0,0.0,0,1004.7,2,5,"-3.6",85
"2021-02-09 00:21:00","-0.7","-2.8",0.0,0.0,0,1004.8,3,5,"-3.6",86
"2021-02-09 00:22:00","-0.7","-2.8",0.0,0.0,0,1004.7,3,5,"-3.6",86
"2021-02-09 00:23:00","-0.7","-2.8",0.0,0.0,0,1004.7,2,3,"",86
"2021-02-09 00:24:00","-0.7","-2.8",0.0,0.0,0,1004.7,3,5,"-3.6",86
"2021-02-09 00:25:00","-0.7","-2.8",0.0,0.0,0,1004.7,3,5,"-3.6",86
"2021-02-09 00:26:00","-0.7","-2.9",0.0,0.0,0,1004.7,2,3,"",85
"2021-02-09 00:27:00","-0.7","-2.8",0.0,0.0,0,1004.6,3,6,"-4.1",86
"2021-02-09 00:28:00","-0.7","-2.9",0.0,0.0,0,1004.6,4,9,"-5.3",85
"2021-02-09 00:29:00","-0.7","-2.8",0.0,0.0,0,1004.7,3,5,"-3.6",86
"2021-02-09 00:30:00","-0.7","-2.8",0.0,0.0,0,1004.6,1,2,"",86
"2021-02-09 00:31:00","-0.8","-3.0",0.0,0.0,0,1004.6,3,5,"-3.7",85
"2021-02-09 00:32:00","-0.8","-3.0",0.0,0.0,0,1004.6,3,7,"-4.6",85
"2021-02-09 00:33:00","-0.7","-2.8",0.0,0.0,0,1004.6,2,4,"-3.1",86
"2021-02-09 00:34:00","-0.7","-2.8",0.0,0.0,0,1004.6,2,4,"-3.0",86
"2021-02-09 00:35:00","-0.8","-2.8",0.0,0.0,0,1004.6,2,3,"",86
"2021-02-09 00:36:00","-0.7","-2.8",0.0,0.0,0,1004.6,2,3,"",86
"2021-02-09 00:37:00","-0.8","-2.8",0.0,0.0,0,1004.6,1,2,"",86
"2021-02-09 00:38:00","-0.7","-2.8",0.0,0.0,0,1004.6,1,3,"",86
"2021-02-09 00:39:00","-0.7","-2.8",0.0,0.0,0,1004.6,2,3,"",86
"2021-02-09 00:40:00","-0.8","-3.0",0.0,0.0,0,1004.6,3,7,"-4.6",85
"2021-02-09 00:41:00","-0.8","-3.0",0.0,0.0,0,1004.6,3,5,"-3.7",85
"2021-02-09 00:42:00","-0.8","-3.0",0.0,0.0,0,1004.6,3,5,"-3.7",85
"2021-02-09 00:43:00","-0.8","-3.0",0.0,0.0,0,1004.6,1,2,"",85
"2021-02-09 00:44:00","-0.8","-3.0",0.0,0.0,0,1004.6,1,2,"",85
"2021-02-09 00:45:00","-0.8","-3.0",0.0,0.0,0,1004.7,3,6,"-4.2",85
"2021-02-09 00:46:00","-0.8","-3.0",0.0,0.0,0,1004.7,3,6,"-4.2",85
"2021-02-09 00:47:00","-0.8","-3.0",0.0,0.0,0,1004.7,3,7,"-4.6",85
"2021-02-09 00:48:00","-0.8","-3.0",0.0,0.0,0,1004.7,1,3,"",85
"2021-02-09 00:49:00","-0.8","-3.0",0.0,0.0,0,1004.7,2,3,"",85
"2021-02-09 00:50:00","-0.8","-3.0",0.0,0.0,0,1004.7,2,5,"-3.7",85
"2021-02-09 00:51:00","-0.8","-3.0",0.0,0.0,0,1004.8,2,3,"",85
"2021-02-09 00:52:00","-0.8","-3.0",0.0,0.0,0,1004.8,2,3,"",85
"2021-02-09 00:53:00","-0.8","-3.0",0.0,0.0,0,1004.8,2,3,"",85
"2021-02-09 00:54:00","-0.8","-2.8",0.0,0.0,0,1004.8,1,2,"",86
"2021-02-09 00:55:00","-0.8","-2.8",0.0,0.0,0,1004.7,1,2,"",86
"2021-02-09 00:56:00","-0.8","-2.8",0.0,0.0,0,1004.8,2,2,"",86
"2021-02-09 00:57:00","-0.8","-2.8",0.0,0.0,0,1004.8,1,2,"",86
"2021-02-09 00:58:00","-0.8","-2.8",0.0,0.0,0,1004.7,1,2,"",86
"2021-02-09 00:59:00","-0.8","-2.8",0.0,0.0,0,1004.8,1,2,"",86
"2021-02-09 01:00:00","-0.8","-2.8",0.0,0.0,0,1004.8,1,2,"",86
"2021-02-09 01:01:00","-0.8","-2.8",0.0,0.0,0,1004.7,1,3,"",86
"2021-02-09 01:02:00","-0.8","-2.8",0.0,0.0,0,1004.8,1,1,"",86
"2021-02-09 01:03:00","-0.8","-2.8",0.0,0.0,0,1004.8,1,2,"",86
"2021-02-09 01:04:00","-0.8","-2.8",0.0,0.0,0,1004.8,2,4,"-3.1",86
"2021-02-09 01:05:00","-0.8","-2.8",0.0,0.0,0,1004.8,2,3,"",86
"2021-02-09 01:06:00","-0.8","-2.8",0.0,0.0,0,1004.8,1,3,"",86
"2021-02-09 01:07:00","-0.8","-2.8",0.0,0.0,0,1004.8,2,2,"",86
"2021-02-09 01:08:00","-0.8","-2.8",0.0,0.0,0,1004.8,1,1,"",86
"2021-02-09 01:09:00","-0.8","-2.8",0.0,0.0,0,1004.7,1,2,"",86
"2021-02-09 01:10:00","-0.7","-2.8",0.0,0.0,0,1004.7,1,2,"",86
"2021-02-09 01:11:00","-0.8","-2.8",0.0,0.0,0,1004.7,1,2,"",86
"2021-02-09 01:12:00","-0.8","-2.8",0.0,0.0,0,1004.7,1,2,"",86
"2021-02-09 01:13:00","-0.8","-2.8",0.0,0.0,0,1004.7,1,2,"",86
"2021-02-09 01:14:00","-0.8","-2.8",0.0,0.0,0,1004.7,2,4,"-3.1",86
"2021-02-09 01:15:00","-0.8","-2.8",0.0,0.0,0,1004.7,1,2,"",86
"2021-02-09 01:16:00","-0.7","-2.8",0.0,0.0,0,1004.7,2,3,"",86
"2021-02-09 01:17:00","-0.8","-2.7",0.0,0.0,0,1004.7,1,2,"",87
"2021-02-09 01:18:00","-0.8","-2.7",0.0,0.0,0,1004.7,1,2,"",87
"2021-02-09 01:19:00","-0.8","-2.8",0.0,0.0,0,1004.7,1,2,"",86
"2021-02-09 01:20:00","-0.8","-2.8",0.0,0.0,0,1004.6,1,2,"",86
"2021-02-09 01:21:00","-0.8","-2.8",0.0,0.0,0,1004.6,1,2,"",86
"2021-02-09 01:22:00","-0.8","-2.7",0.0,0.0,0,1004.6,1,2,"",87
"2021-02-09 01:23:00","-0.8","-2.7",0.0,0.0,0,1004.6,2,3,"",87
"2021-02-09 01:24:00","-0.7","-2.6",0.0,0.0,0,1004.7,1,2,"",87
"2021-02-09 01:25:00","-0.7","-2.6",0.0,0.0,0,1004.7,0,1,"",87
"2021-02-09 01:26:00","-0.7","-2.6",0.0,0.0,0,1004.7,1,2,"",87
"2021-02-09 01:27:00","-0.7","-2.6",0.0,0.0,0,1004.6,1,2,"",87
"2021-02-09 01:28:00","-0.7","-2.6",0.0,0.0,0,1004.6,1,2,"",87
"2021-02-09 01:29:00","-0.7","-2.6",0.0,0.0,0,1004.6,1,3,"",87
"2021-02-09 01:30:00","-0.7","-2.6",0.0,0.0,0,1004.6,1,3,"",87
"2021-02-09 01:31:00","-0.7","-2.6",0.0,0.0,0,1004.6,1,2,"",87
"2021-02-09 01:32:00","-0.7","-2.6",0.0,0.0,0,1004.6,1,2,"",87
"2021-02-09 01:33:00","-0.7","-2.6",0.0,0.0,0,1004.6,2,3,"",87
"2021-02-09 01:34:00","-0.7","-2.6",0.0,0.0,0,1004.6,1,2,"",87
"2021-02-09 01:35:00","-0.7","-2.6",0.0,0.0,0,1004.6,2,3,"",87
"2021-02-09 01:36:00","-0.7","-2.6",0.0,0.0,0,1004.6,2,3,"",87
"2021-02-09 01:37:00","-0.7","-2.6",0.0,0.0,0,1004.7,2,3,"",87
"2021-02-09 01:38:00","-0.7","-2.6",0.0,0.0,0,1004.7,2,5,"-3.6",87
"2021-02-09 01:39:00","-0.7","-2.6",0.0,0.0,0,1004.8,2,4,"-3.0",87
"2021-02-09 01:40:00","-0.7","-2.4",0.0,0.0,0,1004.7,2,2,"",88
"2021-02-09 01:41:00","-0.7","-2.6",0.0,0.0,0,1004.8,2,5,"-3.6",87
"2021-02-09 01:42:00","-0.7","-2.6",0.0,0.0,0,1004.8,1,3,"",87
"2021-02-09 01:43:00","-0.7","-2.6",0.0,0.0,0,1004.8,1,2,"",87
"2021-02-09 01:44:00","-0.7","-2.4",0.0,0.0,0,1004.7,1,2,"",88
"2021-02-09 01:45:00","-0.7","-2.4",0.0,0.0,0,1004.8,1,2,"",88
"2021-02-09 01:46:00","-0.7","-2.4",0.0,0.0,0,1004.7,1,2,"",88
"2021-02-09 01:47:00","-0.7","-2.4",0.0,0.0,0,1004.7,2,3,"",88
"2021-02-09 01:48:00","-0.7","-2.4",0.0,0.0,0,1004.8,2,3,"",88
"2021-02-09 01:49:00","-0.7","-2.4",0.0,0.0,0,1004.8,1,2,"",88
"2021-02-09 01:50:00","-0.7","-2.4",0.0,0.0,0,1004.8,1,2,"",88
"2021-02-09 01:51:00","-0.7","-2.4",0.0,0.0,0,1004.8,1,2,"",88
"2021-02-09 01:52:00","-0.7","-2.4",0.0,0.0,0,1004.9,2,3,"",88
"2021-02-09 01:53:00","-0.7","-2.4",0.0,0.0,0,1004.8,1,2,"",88
"2021-02-09 01:54:00","-0.7","-2.4",0.0,0.0,0,1004.8,2,4,"-3.0",88
"2021-02-09 01:55:00","-0.7","-2.4",0.0,0.0,0,1004.8,1,1,"",88
"2021-02-09 01:56:00","-0.7","-2.4",0.0,0.0,0,1004.8,1,2,"",88
"2021-02-09 01:57:00","-0.7","-2.4",0.0,0.0,0,1004.8,2,4,"-3.0",88
"2021-02-09 01:58:00","-0.7","-2.4",0.0,0.0,0,1004.8,2,3,"",88
"2021-02-09 01:59:00","-0.8","-2.5",0.0,0.0,0,1004.9,2,3,"",88
"2021-02-09 02:00:00","-0.7","-2.4",0.0,0.0,0,1004.9,2,3,"",88
"2021-02-09 02:01:00","-0.8","-2.5",0.0,0.0,0,1004.9,1,2,"",88
"2021-02-09 02:02:00","-0.7","-2.4",0.0,0.0,0,1004.9,1,3,"",88
"2021-02-09 02:03:00","-0.7","-2.4",0.0,0.0,0,1004.9,1,3,"",88
"2021-02-09 02:04:00","-0.7","-2.4",0.0,0.0,0,1004.9,2,5,"-3.6",88
"2021-02-09 02:05:00","-0.8","-2.5",0.0,0.0,0,1004.9,2,4,"-3.1",88
"2021-02-09 02:06:00","-0.8","-2.5",0.0,0.0,0,1004.9,1,2,"",88
"2021-02-09 02:07:00","-0.8","-2.5",0.0,0.0,0,1004.9,1,3,"",88
"2021-02-09 02:08:00","-0.8","-2.5",0.0,0.0,0,1004.9,1,2,"",88
"2021-02-09 02:09:00","-0.7","-2.4",0.0,0.0,0,1005.0,2,3,"",88
"2021-02-09 02:10:00","-0.7","-2.4",0.0,0.0,0,1004.9,1,2,"",88
"2021-02-09 02:11:00","-0.7","-2.4",0.0,0.0,0,1004.9,0,1,"",88
"2021-02-09 02:12:00","-0.7","-2.4",0.0,0.0,0,1004.9,1,2,"",88
"2021-02-09 02:13:00","-0.8","-2.5",0.0,0.0,0,1004.9,1,3,"",88
"2021-02-09 02:14:00","-0.8","-2.5",0.0,0.0,0,1004.9,2,3,"",88
"2021-02-09 02:15:00","-0.8","-2.5",0.0,0.0,0,1005.0,1,2,"",88
"2021-02-09 02:16:00","-0.8","-2.5",0.0,0.0,0,1004.9,0,1,"",88
"2021-02-09 02:17:00","-0.8","-2.5",0.0,0.0,0,1004.9,1,2,"",88
"2021-02-09 02:18:00","-0.8","-2.5",0.0,0.0,0,1004.9,1,2,"",88
"2021-02-09 02:19:00","-0.8","-2.5",0.0,0.0,0,1004.9,2,2,"",88
"2021-02-09 02:20:00","-0.8","-2.5",0.0,0.0,0,1004.9,3,5,"-3.7",88
"2021-02-09 02:21:00","-0.8","-2.5",0.0,0.0,0,1004.9,1,2,"",88
"2021-02-09 02:22:00","-0.8","-2.5",0.0,0.0,0,1005.0,1,2,"",88
"2021-02-09 02:23:00","-0.8","-2.5",0.0,0.0,0,1005.0,2,4,"-3.1",88
"2021-02-09 02:24:00","-0.8","-2.5",0.0,0.0,0,1005.0,3,4,"-3.1",88
"2021-02-09 02:25:00","-0.8","-2.5",0.0,0.0,0,1005.0,2,3,"",88
"2021-02-09 02:26:00","-0.8","-2.5",0.0,0.0,0,1005.0,1,3,"",88
"2021-02-09 02:27:00","-0.8","-2.5",0.0,0.0,0,1005.0,1,2,"",88
"2021-02-09 02:28:00","-0.8","-2.5",0.0,0.0,0,1005.0,1,2,"",88
"2021-02-09 02:29:00","-0.8","-2.5",0.0,0.0,0,1005.1,2,3,"",88
"2021-02-09 02:30:00","-0.8","-2.5",0.0,0.0,0,1005.0,1,2,"",88
"2021-02-09 02:31:00","-0.8","-2.5",0.0,0.0,0,1005.0,1,3,"",88
"2021-02-09 02:32:00","-0.8","-2.5",0.0,0.0,0,1005.0,3,5,"-3.7",88
"2021-02-09 02:33:00","-0.8","-2.5",0.0,0.0,0,1005.0,2,6,"-4.2",88
"2021-02-09 02:34:00","-0.8","-2.5",0.0,0.0,0,1004.9,1,4,"-3.1",88
"2021-02-09 02:35:00","-0.8","-2.5",0.0,0.0,0,1004.9,3,5,"-3.7",88
"2021-02-09 02:36:00","-0.8","-2.5",0.0,0.0,0,1004.9,2,3,"",88
"2021-02-09 02:37:00","-0.8","-2.5",0.0,0.0,0,1005.0,1,3,"",88
"2021-02-09 02:38:00","-0.8","-2.5",0.0,0.0,0,1004.9,1,3,"",88
"2021-02-09 02:39:00","-0.8","-2.5",0.0,0.0,0,1004.9,2,3,"",88
"2021-02-09 02:40:00","-0.8","-2.5",0.0,0.0,0,1004.9,1,2,"",88
"2021-02-09 02:41:00","-0.8","-2.5",0.0,0.0,0,1004.9,2,3,"",88
"2021-02-09 02:42:00","-0.8","-2.5",0.0,0.0,0,1004.9,1,2,"",88
"2021-02-09 02:43:00","-0.8","-2.5",0.0,0.0,0,1004.9,1,2,"",88
"2021-02-09 02:44:00","-0.8","-2.5",0.0,0.0,0,1004.9,2,2,"",88
"2021-02-09 02:45:00","-0.8","-2.5",0.0,0.0,0,1004.9,1,2,"",88
"2021-02-09 02:46:00","-0.8","-2.5",0.0,0.0,0,1004.9,2,3,"",88
"2021-02-09 02:47:00","-0.8","-2.5",0.0,0.0,0,1004.9,0,1,"",88
"2021-02-09 02:48:00","-0.8","-2.5",0.0,0.0,0,1005.0,2,4,"-3.1",88
"2021-02-09 02:49:00","-0.8","-2.5",0.0,0.0,0,1004.9,1,1,"",88
"2021-02-09 02:50:00","-0.8","-2.5",0.0,0.0,0,1004.9,0,1,"",88
"2021-02-09 02:51:00","-0.8","-2.5",0.0,0.0,0,1004.9,0,0,"",88
"2021-02-09 02:52:00","-0.8","-2.5",0.0,0.0,0,1004.9,0,1,"",88
"2021-02-09 02:53:00","-0.8","-2.5",0.0,0.0,0,1004.9,1,1,"",88
"2021-02-09 02:54:00","-0.8","-2.5",0.0,0.0,0,1004.9,1,2,"",88
"2021-02-09 02:55:00","-0.8","-2.5",0.0,0.0,0,1004.9,0,1,"",88
"2021-02-09 02:56:00","-0.8","-2.5",0.0,0.0,0,1005.0,1,3,"",88
"2021-02-09 02:57:00","-0.8","-2.5",0.0,0.0,0,1005.0,1,2,"",88
"2021-02-09 02:58:00","-0.9","-2.6",0.0,0.0,0,1005.0,1,1,"",88
"2021-02-09 02:59:00","-0.8","-2.5",0.0,0.0,0,1004.9,0,1,"",88
"2021-02-09 03:00:00","-0.8","-2.5",0.0,0.0,0,1004.9,0,1,"",88
"2021-02-09 03:01:00","-0.8","-2.5",0.0,0.0,0,1004.9,0,0,"",88
"2021-02-09 03:02:00","-0.8","-2.5",0.0,0.0,0,1005.0,2,3,"",88
"2021-02-09 03:03:00","-0.8","-2.5",0.0,0.0,0,1005.0,0,2,"",88
"2021-02-09 03:04:00","-0.9","-2.6",0.0,0.0,0,1005.0,0,1,"",88
"2021-02-09 03:05:00","-0.8","-2.5",0.0,0.0,0,1005.0,0,1,"",88
"2021-02-09 03:06:00","-0.8","-2.5",0.0,0.0,0,1005.0,0,2,"",88
"2021-02-09 03:07:00","-0.8","-2.5",0.0,0.0,0,1005.0,0,1,"",88
"2021-02-09 03:08:00","-0.8","-2.5",0.0,0.0,0,1005.0,1,3,"",88
"2021-02-09 03:09:00","-0.9","-2.6",0.0,0.0,0,1005.0,1,2,"",88
"2021-02-09 03:10:00","-0.9","-2.6",0.0,0.0,0,1005.0,1,2,"",88
"2021-02-09 03:11:00","-0.9","-2.6",0.0,0.0,0,1005.0,1,2,"",88
"2021-02-09 03:12:00","-0.9","-2.6",0.0,0.0,0,1005.0,2,3,"",88
"2021-02-09 03:13:00","-0.9","-2.6",0.0,0.0,0,1005.0,1,2,"",88
"2021-02-09 03:14:00","-0.9","-2.6",0.0,0.0,0,1004.9,1,2,"",88
"2021-02-09 03:15:00","-0.8","-2.5",0.0,0.0,0,1004.9,1,2,"",88
"2021-02-09 03:16:00","-0.9","-2.6",0.0,0.0,0,1004.9,1,2,"",88
"2021-02-09 03:17:00","-0.8","-2.5",0.0,0.0,0,1004.9,1,2,"",88
"2021-02-09 03:18:00","-0.9","-2.6",0.0,0.0,0,1004.9,1,2,"",88
"2021-02-09 03:19:00","-0.9","-2.6",0.0,0.0,0,1005.0,0,1,"",88
"2021-02-09 03:20:00","-0.9","-2.6",0.0,0.0,0,1005.0,0,1,"",88
"2021-02-09 03:21:00","-0.9","-2.6",0.0,0.0,0,1004.9,1,2,"",88
"2021-02-09 03:22:00","-0.9","-2.6",0.0,0.0,0,1005.0,0,1,"",88
"2021-02-09 03:23:00","-0.9","-2.6",0.0,0.0,0,1004.9,0,2,"",88
"2021-02-09 03:24:00","-0.9","-2.6",0.0,0.0,0,1004.9,0,1,"",88
"2021-02-09 03:25:00","-0.9","-2.6",0.0,0.0,0,1004.9,0,1,"",88
"2021-02-09 03:26:00","-0.9","-2.6",0.0,0.0,0,1004.9,1,2,"",88
"2021-02-09 03:27:00","-0.9","-2.6",0.0,0.0,0,1005.0,1,1,"",88
"2021-02-09 03:28:00","-0.9","-2.6",0.0,0.0,0,1004.9,1,2,"",88
"2021-02-09 03:29:00","-0.9","-2.6",0.0,0.0,0,1004.9,1,2,"",88
"2021-02-09 03:30:00","-0.9","-2.6",0.0,0.0,0,1005.0,1,1,"",88
"2021-02-09 03:31:00","-0.9","-2.6",0.0,0.0,0,1004.9,1,2,"",88
"2021-02-09 03:32:00","-0.9","-2.6",0.0,0.0,0,1004.9,0,1,"",88
"2021-02-09 03:33:00","-0.9","-2.6",0.0,0.0,0,1005.0,1,2,"",88
"2021-02-09 03:34:00","-0.9","-2.6",0.0,0.0,0,1005.0,0,1,"",88
"2021-02-09 03:35:00","-0.9","-2.6",0.0,0.0,0,1005.0,0,1,"",88
"2021-02-09 03:36:00","-0.9","-2.6",0.0,0.0,0,1005.0,0,0,"",88
"2021-02-09 03:37:00","-0.9","-2.6",0.0,0.0,0,1005.0,0,1,"",88
"2021-02-09 03:38:00","-0.9","-2.6",0.0,0.0,0,1005.0,1,2,"",88
"2021-02-09 03:39:00","-0.9","-2.6",0.0,0.0,0,1005.0,2,3,"",88
"2021-02-09 03:40:00","-0.9","-2.6",0.0,0.0,0,1005.0,1,2,"",88
"2021-02-09 03:41:00","-0.9","-2.6",0.0,0.0,0,1005.0,1,2,"",88
"2021-02-09 03:42:00","-0.9","-2.5",0.0,0.0,0,1005.0,1,2,"",89
"2021-02-09 03:43:00","-0.9","-2.5",0.0,0.0,0,1005.0,0,1,"",89
"2021-02-09 03:44:00","-0.9","-2.5",0.0,0.0,0,1005.0,0,1,"",89
"2021-02-09 03:45:00","-0.9","-2.5",0.0,0.0,0,1005.0,1,2,"",89
"2021-02-09 03:46:00","-0.9","-2.5",0.0,0.0,0,1005.0,1,1,"",89
"2021-02-09 03:47:00","-0.9","-2.5",0.0,0.0,0,1004.9,1,2,"",89
"2021-02-09 03:48:00","-0.9","-2.5",0.0,0.0,0,1005.0,1,2,"",89
"2021-02-09 03:49:00","-0.9","-2.5",0.0,0.0,0,1005.0,0,1,"",89
"2021-02-09 03:50:00","-0.9","-2.5",0.0,0.0,0,1005.0,1,2,"",89
"2021-02-09 03:51:00","-0.9","-2.5",0.0,0.0,0,1005.0,0,1,"",89
"2021-02-09 03:52:00","-0.9","-2.5",0.0,0.0,0,1005.0,1,1,"",89
"2021-02-09 03:53:00","-0.9","-2.5",0.0,0.0,0,1005.0,1,1,"",89
"2021-02-09 03:54:00","-0.9","-2.5",0.0,0.0,0,1005.0,1,3,"",89
"2021-02-09 03:55:00","-0.9","-2.5",0.0,0.0,0,1005.0,1,2,"",89
"2021-02-09 03:56:00","-0.9","-2.5",0.0,0.0,0,1005.0,1,3,"",89
"2021-02-09 03:57:00","-0.9","-2.5",0.0,0.0,0,1005.0,1,3,"",89
"2021-02-09 03:58:00","-0.9","-2.5",0.0,0.0,0,1005.0,2,3,"",89
"2021-02-09 03:59:00","-0.9","-2.5",0.0,0.0,0,1004.9,2,3,"",89
"2021-02-09 04:00:00","-0.9","-2.5",0.0,0.0,0,1004.9,1,2,"",89
"2021-02-09 04:01:00","-0.9","-2.5",0.0,0.0,0,1004.9,0,1,"",89
"2021-02-09 04:02:00","-0.9","-2.5",0.0,0.0,0,1004.9,0,1,"",89
"2021-02-09 04:03:00","-0.9","-2.5",0.0,0.0,0,1004.9,1,2,"",89
"2021-02-09 04:04:00","-0.9","-2.5",0.0,0.0,0,1004.9,1,2,"",89
"2021-02-09 04:05:00","-0.9","-2.5",0.0,0.0,0,1005.0,1,2,"",89
"2021-02-09 04:06:00","-0.9","-2.5",0.0,0.0,0,1004.9,1,2,"",89
"2021-02-09 04:07:00","-0.9","-2.5",0.0,0.0,0,1004.9,1,2,"",89
"2021-02-09 04:08:00","-0.9","-2.5",0.0,0.0,0,1004.9,1,2,"",89
"2021-02-09 04:09:00","-0.9","-2.5",0.0,0.0,0,1004.9,1,2,"",89
"2021-02-09 04:10:00","-0.8","-2.4",0.0,0.0,0,1004.9,2,5,"-3.7",89
"2021-02-09 04:11:00","-0.8","-2.4",0.0,0.0,0,1004.8,2,4,"-3.2",89
"2021-02-09 04:12:00","-0.9","-2.5",0.0,0.0,0,1004.8,1,2,"",89
"2021-02-09 04:13:00","-0.9","-2.5",0.0,0.0,0,1004.7,1,1,"",89
"2021-02-09 04:14:00","-0.8","-2.4",0.0,0.0,0,1004.8,1,3,"",89
"2021-02-09 04:15:00","-0.9","-2.5",0.0,0.0,0,1004.8,1,2,"",89
"2021-02-09 04:16:00","-0.8","-2.4",0.0,0.0,0,1004.8,1,2,"",89
"2021-02-09 04:17:00","-0.8","-2.4",0.0,0.0,0,1004.9,2,4,"-3.1",89
"2021-02-09 04:18:00","-0.9","-2.5",0.0,0.0,0,1004.8,2,3,"",89
"2021-02-09 04:19:00","-0.9","-2.5",0.0,0.0,0,1004.8,1,2,"",89
"2021-02-09 04:20:00","-0.8","-2.4",0.0,0.0,0,1004.8,2,5,"-3.7",89
"2021-02-09 04:21:00","-0.9","-2.3",0.0,0.0,0,1004.9,1,3,"",90
"2021-02-09 04:22:00","-0.8","-2.4",0.0,0.0,0,1004.9,3,5,"-3.7",89
"2021-02-09 04:23:00","-0.9","-2.5",0.0,0.0,0,1004.9,2,3,"",89
"2021-02-09 04:24:00","-0.9","-2.5",0.0,0.0,0,1004.8,1,2,"",89
"2021-02-09 04:25:00","-0.8","-2.4",0.0,0.0,0,1004.8,2,3,"",89
"2021-02-09 04:26:00","-0.8","-2.2",0.0,0.0,0,1004.8,1,2,"",90
"2021-02-09 04:27:00","-0.9","-2.3",0.0,0.0,0,1004.8,3,4,"-3.1",90
"2021-02-09 04:28:00","-0.8","-2.2",0.0,0.0,0,1004.8,1,2,"",90
"2021-02-09 04:29:00","-0.8","-2.2",0.0,0.0,0,1004.8,1,2,"",90
"2021-02-09 04:30:00","-0.8","-2.2",0.0,0.0,0,1004.8,2,5,"-3.7",90
"2021-02-09 04:31:00","-0.8","-2.4",0.0,0.0,0,1004.8,1,3,"",89
"2021-02-09 04:32:00","-0.8","-2.4",0.0,0.0,0,1004.8,0,1,"",89
"2021-02-09 04:33:00","-0.8","-2.4",0.0,0.0,0,1004.8,2,4,"-3.1",89
"2021-02-09 04:34:00","-0.8","-2.4",0.0,0.0,0,1004.8,0,2,"",89
"2021-02-09 04:35:00","-0.8","-2.2",0.0,0.0,0,1004.8,1,2,"",90
"2021-02-09 04:36:00","-0.8","-2.4",0.0,0.0,0,1004.8,1,2,"",89
"2021-02-09 04:37:00","-0.8","-2.2",0.0,0.0,0,1004.9,2,4,"-3.1",90
"2021-02-09 04:38:00","-0.8","-2.4",0.0,0.0,0,1004.9,1,3,"",89
"2021-02-09 04:39:00","-0.8","-2.2",0.0,0.0,0,1004.9,1,1,"",90
"2021-02-09 04:40:00","-0.8","-2.2",0.0,0.0,0,1004.8,1,2,"",90
"2021-02-09 04:41:00","-0.8","-2.4",0.0,0.0,0,1004.8,1,3,"",89
"2021-02-09 04:42:00","-0.8","-2.4",0.0,0.0,0,1004.9,2,2,"",89
"2021-02-09 04:43:00","-0.8","-2.4",0.0,0.0,0,1004.9,1,2,"",89
"2021-02-09 04:44:00","-0.8","-2.4",0.0,0.0,0,1004.9,1,2,"",89
"2021-02-09 04:45:00","-0.8","-2.2",0.0,0.0,0,1004.9,2,2,"",90
"2021-02-09 04:46:00","-0.8","-2.4",0.0,0.0,0,1004.9,0,1,"",89
"2021-02-09 04:47:00","-0.8","-2.4",0.0,0.0,0,1004.9,1,1,"",89
"2021-02-09 04:48:00","-0.8","-2.2",0.0,0.0,0,1004.8,0,1,"",90
"2021-02-09 04:49:00","-0.8","-2.4",0.0,0.0,0,1004.9,2,4,"-3.1",89
"2021-02-09 04:50:00","-0.8","-2.4",0.0,0.0,0,1004.9,3,6,"-4.2",89
"2021-02-09 04:51:00","-0.8","-2.2",0.0,0.0,0,1004.9,2,3,"",90
"2021-02-09 04:52:00","-0.8","-2.2",0.0,0.0,0,1004.8,2,4,"-3.1",90
"2021-02-09 04:53:00","-0.8","-2.2",0.0,0.0,0,1004.9,1,2,"",90
"2021-02-09 04:54:00","-0.8","-2.2",0.0,0.0,0,1004.9,1,1,"",90
"2021-02-09 04:55:00","-0.8","-2.2",0.0,0.0,0,1004.9,0,1,"",90
"2021-02-09 04:56:00","-0.8","-2.2",0.0,0.0,0,1004.9,1,2,"",90
"2021-02-09 04:57:00","-0.8","-2.2",0.0,0.0,0,1004.9,1,1,"",90
"2021-02-09 04:58:00","-0.8","-2.2",0.0,0.0,0,1004.9,1,3,"",90
"2021-02-09 04:59:00","-0.8","-2.2",0.0,0.0,0,1005.0,1,3,"",90
"2021-02-09 05:00:00","-0.8","-2.2",0.0,0.0,0,1004.9,2,6,"-4.2",90
"2021-02-09 05:01:00","-0.8","-2.2",0.0,0.0,0,1004.9,1,2,"",90
"2021-02-09 05:02:00","-0.8","-2.2",0.0,0.0,0,1004.9,1,2,"",90
"2021-02-09 05:03:00","-0.8","-2.2",0.0,0.0,0,1004.9,1,3,"",90
"2021-02-09 05:04:00","-0.8","-2.2",0.0,0.0,0,1004.9,1,2,"",90
"2021-02-09 05:05:00","-0.8","-2.2",0.0,0.0,0,1004.9,0,1,"",90
"2021-02-09 05:06:00","-0.8","-2.2",0.0,0.0,0,1004.9,2,4,"-3.1",90
"2021-02-09 05:07:00","-0.8","-2.2",0.0,0.0,0,1004.9,2,3,"",90
"2021-02-09 05:08:00","-0.8","-2.2",0.0,0.0,0,1004.9,2,4,"-3.1",90
"2021-02-09 05:09:00","-0.8","-2.2",0.0,0.0,0,1004.9,3,6,"-4.2",90
"2021-02-09 05:10:00","-0.8","-2.2",0.0,0.0,0,1004.9,1,3,"",90
"2021-02-09 05:11:00","-0.8","-2.2",0.0,0.0,0,1004.9,1,2,"",90
"2021-02-09 05:12:00","-0.8","-2.2",0.0,0.0,0,1004.9,2,4,"-3.1",90
"2021-02-09 05:13:00","-0.8","-2.2",0.0,0.0,0,1004.9,1,3,"",90
"2021-02-09 05:14:00","-0.8","-2.2",0.0,0.0,0,1004.9,4,7,"-4.6",90
"2021-02-09 05:15:00","-0.8","-2.4",0.0,0.0,0,1004.9,2,3,"",89
"2021-02-09 05:16:00","-0.8","-2.2",0.0,0.0,0,1004.9,1,2,"",90
"2021-02-09 05:17:00","-0.8","-2.2",0.0,0.0,0,1004.9,2,3,"",90
"2021-02-09 05:18:00","-0.8","-2.2",0.0,0.0,0,1004.9,1,3,"",90
"2021-02-09 05:19:00","-0.8","-2.2",0.0,0.0,0,1004.9,1,1,"",90
"2021-02-09 05:20:00","-0.8","-2.2",0.0,0.0,0,1004.9,1,2,"",90
"2021-02-09 05:21:00","-0.8","-2.2",0.0,0.0,0,1004.9,1,2,"",90
"2021-02-09 05:22:00","-0.8","-2.2",0.0,0.0,0,1005.0,1,3,"",90
"2021-02-09 05:23:00","-0.8","-2.2",0.0,0.0,0,1005.0,3,7,"-4.6",90
"2021-02-09 05:24:00","-0.8","-2.2",0.0,0.0,0,1005.0,2,3,"",90
"2021-02-09 05:25:00","-0.8","-2.2",0.0,0.0,0,1004.9,1,2,"",90
"2021-02-09 05:26:00","-0.8","-2.4",0.0,0.0,0,1004.9,2,5,"-3.7",89
"2021-02-09 05:27:00","-0.8","-2.4",0.0,0.0,0,1004.9,2,4,"-3.1",89
"2021-02-09 05:28:00","-0.8","-2.4",0.0,0.0,0,1004.9,1,3,"",89
"2021-02-09 05:29:00","-0.9","-2.5",0.0,0.0,0,1004.9,1,2,"",89
"2021-02-09 05:30:00","-0.9","-2.5",0.0,0.0,0,1004.9,1,2,"",89
"2021-02-09 05:31:00","-0.9","-2.3",0.0,0.0,0,1004.9,2,5,"-3.7",90
"2021-02-09 05:32:00","-0.9","-2.3",0.0,0.0,0,1004.9,2,4,"-3.1",90
"2021-02-09 05:33:00","-0.9","-2.3",0.0,0.0,0,1004.9,1,1,"",90
"2021-02-09 05:34:00","-0.8","-2.2",0.0,0.0,0,1005.0,1,3,"",90
"2021-02-09 05:35:00","-0.9","-2.3",0.0,0.0,0,1005.0,2,4,"-3.1",90
"2021-02-09 05:36:00","-0.9","-2.3",0.0,0.0,0,1004.9,2,3,"",90
"2021-02-09 05:37:00","-0.9","-2.3",0.0,0.0,0,1005.0,2,3,"",90
"2021-02-09 05:38:00","-0.8","-2.2",0.0,0.0,0,1005.0,2,5,"-3.7",90
"2021-02-09 05:39:00","-0.8","-2.2",0.0,0.0,0,1005.0,1,2,"",90
"2021-02-09 05:40:00","-0.9","-2.3",0.0,0.0,0,1004.9,2,3,"",90
"2021-02-09 05:41:00","-0.8","-2.2",0.0,0.0,0,1004.9,2,3,"",90
"2021-02-09 05:42:00","-0.9","-2.3",0.0,0.0,0,1004.9,2,3,"",90
"2021-02-09 05:43:00","-0.9","-2.3",0.0,0.0,0,1004.9,1,2,"",90
"2021-02-09 05:44:00","-0.8","-2.2",0.0,0.0,0,1004.9,1,2,"",90
"2021-02-09 05:45:00","-0.8","-2.2",0.0,0.0,0,1004.8,1,2,"",90
"2021-02-09 05:46:00","-0.9","-2.3",0.0,0.0,0,1004.8,2,3,"",90
"2021-02-09 05:47:00","-0.9","-2.3",0.0,0.0,0,1004.8,1,2,"",90
"2021-02-09 05:48:00","-0.9","-2.3",0.0,0.0,0,1004.8,2,3,"",90
"2021-02-09 05:49:00","-0.8","-2.2",0.0,0.0,0,1004.7,2,4,"-3.2",90
"2021-02-09 05:50:00","-0.9","-2.3",0.0,0.0,0,1004.7,1,3,"",90
"2021-02-09 05:51:00","-0.8","-2.2",0.0,0.0,0,1004.7,2,5,"-3.7",90
"2021-02-09 05:52:00","-0.8","-2.2",0.0,0.0,0,1004.7,1,3,"",90
"2021-02-09 05:53:00","-0.9","-2.3",0.0,0.0,0,1004.7,1,2,"",90
"2021-02-09 05:54:00","-0.9","-2.3",0.0,0.0,0,1004.7,2,5,"-3.8",90
"2021-02-09 05:55:00","-0.9","-2.3",0.0,0.0,0,1004.7,3,4,"-3.2",90
"2021-02-09 05:56:00","-0.9","-2.3",0.0,0.0,0,1004.7,1,3,"",90
"2021-02-09 05:57:00","-0.9","-2.3",0.0,0.0,0,1004.6,1,2,"",90
"2021-02-09 05:58:00","-0.9","-2.3",0.0,0.0,0,1004.6,3,4,"-3.2",90
"2021-02-09 05:59:00","-0.9","-2.3",0.0,0.0,0,1004.6,3,6,"-4.3",90
"2021-02-09 06:00:00","-0.9","-2.3",0.0,0.0,0,1004.6,3,5,"-3.8",90
"2021-02-09 06:01:00","-0.9","-2.3",0.0,0.0,0,1004.6,2,4,"-3.2",90
"2021-02-09 06:02:00","-0.9","-2.3",0.0,0.0,0,1004.5,4,7,"-4.7",90
"2021-02-09 06:03:00","-0.9","-2.3",0.0,0.0,0,1004.6,1,2,"",90
"2021-02-09 06:04:00","-0.9","-2.3",0.0,0.0,0,1004.5,1,3,"",90
"2021-02-09 06:05:00","-0.9","-2.3",0.0,0.0,0,1004.5,2,4,"-3.2",90
"2021-02-09 06:06:00","-0.9","-2.3",0.0,0.0,0,1004.5,2,4,"-3.2",90
"2021-02-09 06:07:00","-0.9","-2.3",0.0,0.0,0,1004.5,1,2,"",90
"2021-02-09 06:08:00","-0.9","-2.3",0.0,0.0,0,1004.4,2,3,"",90
"2021-02-09 06:09:00","-0.9","-2.3",0.0,0.0,0,1004.5,2,3,"",90
"2021-02-09 06:10:00","-0.9","-2.3",0.0,0.0,0,1004.4,2,3,"",90
"2021-02-09 06:11:00","-0.9","-2.3",0.0,0.0,0,1004.5,2,4,"-3.2",90
"2021-02-09 06:12:00","-0.9","-2.3",0.0,0.0,0,1004.4,2,4,"-3.2",90